Weather History for KSDL - February, 2014

Change the Weather History Date:

Monday, February 3, 2014

  Actual Average Record
Temperature  
Mean Temperature 52 °F -  
Max Temperature 57 °F 64 °F 79 °F (2009)
Min Temperature 45 °F 44 °F 28 °F (2011)
Degree Days  
Heating Degree Days 14    
Growing Degree Days 2 (Base 50)    
Moisture  
Dew Point 23 °F    
Average Humidity 35    
Maximum Humidity 54    
Minimum Humidity 18    
Precipitation  
Precipitation 0.00 in - - ()
Sea Level Pressure  
Sea Level Pressure 29.85 in    
Wind  
Wind Speed 1 mph (SW)    
Max Wind Speed 7 mph    
Max Gust Speed -    
Visibility 10 miles    
Events      
Averages and records for this station are not official NWS values.
T = Trace of Precipitation, MM = Missing Value Source: NWS Daily Summary

Daily Weather History Graph

Daily Weather History Graph

Search for Another Location

Airport or City:

Trip Planner

Search our weather history database for the weather conditions in past years. The results will help you decide how hot, cold, wet, or windy it might be!

Date:

Astronomy

Feb. 03, 2014 Rise Set
Actual Time 7:22 AM MST 6:00 PM MST
Civil Twilight 6:56 AM MST 6:26 PM MST
Nautical Twilight 6:26 AM MST 6:56 PM MST
Astronomical Twilight 5:57 AM MST 7:25 PM MST
Moon 9:42 AM MST 10:38 PM MST
Length of Visible Light 11h 30m
Length of Day
10h 38m
Waxing Crescent, 20% of the Moon is Illuminated
Feb 3
Waxing Crescent
Feb 6
First Quarter
Feb 14
Full
Feb 22
Last Quarter
Mar 1
New

Hourly Weather History & Observations

Time (MST) Temp. Dew Point Humidity Pressure Visibility Wind Dir Wind Speed Gust Speed Precip Events Conditions
12:53 AM 51.1 °F 26.1 °F 38% 29.91 in 10.0 mi Calm Calm - N/A   Clear
1:53 AM 48.9 °F 27.0 °F 43% 29.90 in 10.0 mi Calm Calm - N/A   Clear
2:53 AM 50.0 °F 26.1 °F 39% 29.89 in 10.0 mi Calm Calm - N/A   Clear
3:53 AM 46.9 °F 28.0 °F 48% 29.87 in 10.0 mi West 3.5 mph - N/A   Clear
4:53 AM 48.9 °F 28.0 °F 44% 29.86 in 10.0 mi Calm Calm - N/A   Scattered Clouds
5:53 AM 46.9 °F 28.9 °F 50% 29.86 in 10.0 mi Calm Calm - N/A   Clear
6:53 AM 46.0 °F 28.0 °F 50% 29.86 in 10.0 mi Calm Calm - N/A   Partly Cloudy
7:53 AM 46.0 °F 30.0 °F 54% 29.87 in 10.0 mi Calm Calm - N/A   Overcast
8:53 AM 48.9 °F 30.0 °F 48% 29.87 in 10.0 mi Calm Calm - N/A   Mostly Cloudy
9:53 AM 51.1 °F 30.0 °F 44% 29.87 in 10.0 mi Calm Calm - N/A   Mostly Cloudy
10:53 AM 55.9 °F 24.1 °F 29% 29.86 in 10.0 mi Variable 4.6 mph - N/A   Mostly Cloudy
11:53 AM 55.9 °F 21.9 °F 27% 29.84 in 10.0 mi Calm Calm - N/A   Overcast
12:53 PM 57.9 °F 18.0 °F 21% 29.81 in 10.0 mi WSW 4.6 mph - N/A   Overcast
1:53 PM 57.9 °F 21.0 °F 24% 29.79 in 10.0 mi West 6.9 mph - N/A   Overcast
2:53 PM 57.9 °F 18.0 °F 21% 29.79 in 10.0 mi WSW 6.9 mph - N/A   Overcast
3:53 PM 57.9 °F 14.0 °F 18% 29.80 in 10.0 mi WSW 3.5 mph - N/A   Overcast
4:53 PM 57.0 °F 15.1 °F 19% 29.81 in 10.0 mi SSW 3.5 mph - N/A   Overcast
5:53 PM 55.9 °F 16.0 °F 21% 29.82 in 10.0 mi SSE 3.5 mph - N/A   Partly Cloudy
6:53 PM 53.1 °F 18.0 °F 25% 29.84 in 10.0 mi Calm Calm - N/A   Partly Cloudy
7:53 PM 51.1 °F 19.9 °F 29% 29.86 in 10.0 mi Calm Calm - N/A   Clear
8:53 PM 51.1 °F 19.9 °F 29% 29.87 in 10.0 mi Calm Calm - N/A   Overcast
9:53 PM 48.0 °F 21.9 °F 36% 29.88 in 10.0 mi Calm Calm - N/A   Partly Cloudy
10:53 PM 46.9 °F 21.0 °F 36% 29.88 in 10.0 mi Calm Calm - N/A   Clear
11:53 PM 45.0 °F 24.1 °F 44% 29.90 in 10.0 mi Calm Calm - N/A   Clear